TimeCDT,TemperatureF,Dew PointF,Humidity,Sea Level PressureIn,VisibilityMPH,Wind Direction,Wind SpeedMPH,Gust SpeedMPH,PrecipitationIn,Events,Conditions,WindDirDegrees,DateUTC
12:53 AM,24.1,16.0,71,30.43,10.0,Calm,Calm,-,N/A,,Clear,0,2013-03-26 05:53:00
1:53 AM,23.0,18.0,81,30.43,10.0,Calm,Calm,-,N/A,,Clear,0,2013-03-26 06:53:00
2:53 AM,21.9,16.0,78,30.43,10.0,SSW,3.5,-,N/A,,Clear,210,2013-03-26 07:53:00
3:53 AM,21.9,16.0,78,30.43,10.0,Calm,Calm,-,N/A,,Clear,0,2013-03-26 08:53:00
4:53 AM,21.0,16.0,81,30.43,10.0,Calm,Calm,-,N/A,,Clear,0,2013-03-26 09:53:00
5:53 AM,19.9,16.0,85,30.43,10.0,Calm,Calm,-,N/A,,Clear,0,2013-03-26 10:53:00
6:53 AM,19.0,15.1,85,30.45,10.0,Calm,Calm,-,N/A,,Clear,0,2013-03-26 11:53:00
7:53 AM,18.0,14.0,84,30.47,10.0,Calm,Calm,-,N/A,,Clear,0,2013-03-26 12:53:00
8:53 AM,25.0,19.0,78,30.47,10.0,Calm,Calm,-,N/A,,Clear,0,2013-03-26 13:53:00
9:53 AM,30.9,21.0,67,30.48,10.0,Calm,Calm,-,N/A,,Clear,0,2013-03-26 14:53:00
10:53 AM,36.0,19.9,52,30.48,10.0,Calm,Calm,-,N/A,,Clear,0,2013-03-26 15:53:00
11:53 AM,39.0,19.0,45,30.45,10.0,Variable,3.5,-,N/A,,Clear,0,2013-03-26 16:53:00
12:53 PM,41.0,19.0,41,30.43,10.0,Calm,Calm,-,N/A,,Clear,0,2013-03-26 17:53:00
1:53 PM,44.1,18.0,35,30.40,10.0,Calm,Calm,-,N/A,,Clear,0,2013-03-26 18:53:00
2:53 PM,46.9,19.9,34,30.36,10.0,Variable,3.5,-,N/A,,Clear,0,2013-03-26 19:53:00
3:53 PM,48.9,18.0,29,30.33,10.0,South,5.8,-,N/A,,Clear,190,2013-03-26 20:53:00
4:53 PM,48.9,18.0,29,30.30,10.0,Variable,6.9,-,N/A,,Clear,0,2013-03-26 21:53:00
5:53 PM,51.1,17.1,26,30.27,10.0,South,6.9,-,N/A,,Clear,170,2013-03-26 22:53:00
6:53 PM,50.0,18.0,28,30.27,10.0,SSE,11.5,-,N/A,,Clear,150,2013-03-26 23:53:00
7:53 PM,46.0,18.0,33,30.27,10.0,SSE,5.8,-,N/A,,Clear,150,2013-03-27 00:53:00
8:53 PM,39.9,19.0,43,30.27,10.0,ESE,8.1,-,N/A,,Clear,120,2013-03-27 01:53:00
9:53 PM,42.1,19.0,40,30.25,10.0,SE,10.4,-,N/A,,Clear,130,2013-03-27 02:53:00
10:53 PM,39.9,19.0,43,30.25,10.0,SE,10.4,-,N/A,,Clear,130,2013-03-27 03:53:00
11:53 PM,41.0,19.0,41,30.23,10.0,SE,9.2,-,N/A,,Clear,130,2013-03-27 04:53:00